Location: Killam
(52.7910°N, 111.8608°W)
Time: 13:11:40
(UTC+00:00)

Oscar 11 - Pass Details

Date: 21 March 2026
Orbit: 590 x 602 km, 97.8° (Epoch: 18 April)

Event Time Altitude Azimuth Distance (km) Brightness Sun altitude
Rises 12:11:29 0° 7° (N) 2,841 10.8 -12.1°
Reaches altitude 10° 12:13:52 10° 356° (N) 1,934 9.8 -11.8°
Maximum altitude 12:17:27 28° 297° (WNW) 1,115 8.0 -11.2°
Enters shadow 12:20:09 15° 245° (WSW) 1,621 8.6 -10.8°
